| time (UTC) | temp F | wind direction | speed MPH | gust MPH | rain 1hr in | rain 24hr in | rain mn in | humidity % | barometer mb |
| 20260506080111 | 56 | 178 | 5.0 | 15.0 | 0.00 | 0.00 | 0.00 | 86 | 1010.5 |
| 20260506073514 | 56 | 162 | 3.0 | 18.0 | 0.00 | 0.00 | 0.00 | 85 | 1010.5 |
| 20260506073013 | 56 | 161 | 7.0 | 19.0 | 0.00 | 0.00 | 0.00 | 85 | 1010.5 |
| 20260506072512 | 56 | 138 | 6.0 | 13.0 | 0.00 | 0.00 | 0.00 | 85 | 1010.6 |
| 20260506072009 | 56 | 194 | 2.0 | 13.0 | 0.00 | 0.00 | 0.00 | 85 | 1010.6 |
| 20260506071506 | 56 | 80 | 4.0 | 15.0 | 0.00 | 0.00 | 0.00 | 85 | 1010.8 |
| 20260506071004 | 56 | 198 | 6.0 | 15.0 | 0.00 | 0.00 | 0.00 | 85 | 1010.6 |
| 20260506070503 | 56 | 168 | 6.0 | 13.0 | 0.00 | 0.00 | 0.00 | 85 | 1010.7 |
| 20260506062510 | 57 | 169 | 5.0 | 14.0 | 0.00 | 0.00 | 0.00 | 83 | 1010.6 |
| 20260506062008 | 57 | 177 | 2.0 | 14.0 | 0.00 | 0.00 | 0.00 | 83 | 1010.6 |
| 20260506061506 | 57 | 165 | 6.0 | 16.0 | 0.00 | 0.00 | 0.00 | 83 | 1010.6 |
| 20260506061004 | 57 | 220 | 6.0 | 16.0 | 0.00 | 0.00 | 0.00 | 83 | 1010.6 |
| 20260506060600 | 57 | 182 | 3.0 | 12.0 | 0.00 | 0.00 | 0.00 | 83 | 1010.5 |
| 20260506051002 | 58 | 172 | 6.0 | 13.0 | 0.00 | 0.00 | 0.00 | 80 | 1010.8 |
| 20260506050600 | 58 | 161 | 4.0 | 13.0 | 0.00 | 0.00 | 0.00 | 80 | 1010.8 |
| 20260506045014 | 58 | 192 | 6.0 | 14.0 | 0.00 | 0.00 | 0.00 | 80 | 1010.8 |
| 20260506044512 | 59 | 180 | 5.0 | 14.0 | 0.00 | 0.00 | 0.00 | 79 | 1010.9 |
| 20260506044010 | 59 | 155 | 5.0 | 13.0 | 0.00 | 0.00 | 0.00 | 79 | 1010.9 |
| 20260506043510 | 59 | 140 | 6.0 | 16.0 | 0.00 | 0.00 | 0.00 | 79 | 1010.9 |
| 20260506043006 | 59 | 196 | 5.0 | 16.0 | 0.00 | 0.00 | 0.00 | 79 | 1010.9 |
| 20260506042504 | 59 | 215 | 4.0 | 15.0 | 0.00 | 0.00 | 0.00 | 78 | 1010.8 |
| 20260506042003 | 59 | 158 | 6.0 | 14.0 | 0.00 | 0.00 | 0.00 | 78 | 1010.9 |
| 20260506041501 | 59 | 171 | 7.0 | 14.0 | 0.00 | 0.00 | 0.00 | 78 | 1011.0 |
| 20260506041005 | 60 | 161 | 5.0 | 13.0 | 0.00 | 0.00 | 0.00 | 78 | 1011.0 |
| 20260506040522 | 60 | 171 | 3.0 | 15.0 | 0.00 | 0.00 | 0.00 | 77 | 1011.0 |
| 20260506040015 | 60 | 171 | 7.0 | 15.0 | 0.00 | 0.00 | 0.00 | 77 | 1010.9 |
| 20260506035513 | 60 | 90 | 4.0 | 18.0 | 0.00 | 0.00 | 0.00 | 77 | 1011.1 |
| 20260506035013 | 60 | 180 | 3.0 | 16.0 | 0.00 | 0.00 | 0.00 | 77 | 1011.0 |
| 20260506034510 | 61 | 175 | 4.0 | 18.0 | 0.00 | 0.00 | 0.00 | 76 | 1011.0 |
| 20260506034007 | 61 | 125 | 8.0 | 18.0 | 0.00 | 0.00 | 0.00 | 76 | 1011.0 |
| 20260506033506 | 61 | 132 | 6.0 | 17.0 | 0.00 | 0.00 | 0.00 | 76 | 1010.8 |
| 20260506033004 | 61 | 155 | 4.0 | 17.0 | 0.00 | 0.00 | 0.00 | 76 | 1010.8 |
| 20260506032502 | 61 | 116 | 6.0 | 12.0 | 0.00 | 0.00 | 0.00 | 76 | 1010.9 |
| 20260506032100 | 61 | 159 | 4.0 | 18.0 | 0.00 | 0.00 | 0.00 | 76 | 1010.8 |
| 20260506031518 | 61 | 96 | 6.0 | 18.0 | 0.00 | 0.00 | 0.00 | 76 | 1010.8 |
| 20260506031016 | 61 | 190 | 5.0 | 14.0 | 0.00 | 0.00 | 0.00 | 76 | 1010.9 |
| 20260506030515 | 61 | 148 | 5.0 | 15.0 | 0.00 | 0.00 | 0.00 | 76 | 1010.9 |
| 20260506030011 | 61 | 108 | 4.0 | 17.0 | 0.00 | 0.00 | 0.00 | 76 | 1010.9 |
| 20260506025514 | 61 | 161 | 5.0 | 17.0 | 0.00 | 0.00 | 0.00 | 75 | 1011.0 |
| 20260506025033 | 61 | 188 | 2.0 | 14.0 | 0.00 | 0.00 | 0.00 | 75 | 1010.9 |
| 20260506024518 | 61 | 80 | 6.0 | 14.0 | 0.00 | 0.00 | 0.00 | 75 | 1010.9 |
| 20260506024016 | 61 | 146 | 5.0 | 14.0 | 0.00 | 0.00 | 0.00 | 74 | 1010.9 |
| 20260506023510 | 61 | 163 | 4.0 | 16.0 | 0.00 | 0.00 | 0.00 | 74 | 1011.0 |
| 20260506023016 | 61 | 160 | 7.0 | 17.0 | 0.00 | 0.00 | 0.00 | 74 | 1010.9 |
| 20260506022508 | 61 | 158 | 6.0 | 16.0 | 0.00 | 0.00 | 0.00 | 73 | 1010.9 |
| 20260506022004 | 61 | 179 | 2.0 | 20.0 | 0.00 | 0.00 | 0.00 | 73 | 1010.9 |
| 20260506021505 | 61 | 199 | 5.0 | 20.0 | 0.00 | 0.00 | 0.00 | 73 | 1010.9 |
| 20260506021006 | 61 | 178 | 5.0 | 17.0 | 0.00 | 0.00 | 0.00 | 72 | 1010.9 |
| 20260506020503 | 62 | 169 | 6.0 | 17.0 | 0.00 | 0.00 | 0.00 | 72 | 1011.0 |
| 20260506020059 | 62 | 205 | 6.0 | 17.0 | 0.00 | 0.00 | 0.00 | 72 | 1011.0 |
| 20260506015517 | 62 | 238 | 7.0 | 20.0 | 0.00 | 0.00 | 0.00 | 72 | 1010.9 |
| 20260506015015 | 62 | 190 | 6.0 | 20.0 | 0.00 | 0.00 | 0.00 | 71 | 1010.9 |
| 20260506014515 | 62 | 272 | 6.0 | 15.0 | 0.00 | 0.00 | 0.00 | 71 | 1010.8 |
| 20260506014010 | 62 | 144 | 4.0 | 15.0 | 0.00 | 0.00 | 0.00 | 71 | 1010.7 |
| 20260506013512 | 62 | 168 | 6.0 | 16.0 | 0.00 | 0.00 | 0.00 | 70 | 1010.6 |
| 20260506013011 | 63 | 152 | 5.0 | 16.0 | 0.00 | 0.00 | 0.00 | 70 | 1010.7 |
| 20260506012510 | 63 | 177 | 7.0 | 23.0 | 0.00 | 0.00 | 0.00 | 70 | 1010.6 |
| 20260506012013 | 63 | 179 | 7.0 | 23.0 | 0.00 | 0.00 | 0.00 | 70 | 1010.4 |
| 20260506011523 | 63 | 190 | 8.0 | 17.0 | 0.00 | 0.00 | 0.00 | 69 | 1010.4 |
| 20260506011010 | 63 | 119 | 7.0 | 15.0 | 0.00 | 0.00 | 0.00 | 69 | 1010.3 |
| 20260506010504 | 64 | 157 | 6.0 | 15.0 | 0.00 | 0.00 | 0.00 | 68 | 1010.3 |
| 20260506010002 | 64 | 105 | 5.0 | 14.0 | 0.00 | 0.00 | 0.00 | 68 | 1010.2 |
| 20260506005600 | 64 | 167 | 5.0 | 14.0 | 0.00 | 0.00 | 0.00 | 68 | 1010.2 |
| 20260506005020 | 64 | 178 | 7.0 | 18.0 | 0.00 | 0.00 | 0.00 | 67 | 1010.0 |
| 20260506004532 | 65 | 112 | 4.0 | 19.0 | 0.00 | 0.00 | 0.00 | 67 | 1010.0 |
| 20260506004017 | 65 | 68 | 7.0 | 19.0 | 0.00 | 0.00 | 0.00 | 67 | 1009.9 |
| 20260506003512 | 65 | 187 | 6.0 | 16.0 | 0.00 | 0.00 | 0.00 | 67 | 1009.9 |
| 20260506003011 | 65 | 154 | 4.0 | 16.0 | 0.00 | 0.00 | 0.00 | 67 | 1009.8 |
| 20260506002516 | 65 | 181 | 7.0 | 18.0 | 0.00 | 0.00 | 0.00 | 67 | 1009.9 |
| 20260506002010 | 65 | 206 | 5.0 | 12.0 | 0.00 | 0.00 | 0.00 | 67 | 1009.8 |
| 20260506001508 | 65 | 242 | 6.0 | 15.0 | 0.00 | 0.00 | 0.00 | 67 | 1009.8 |
| 20260506001007 | 65 | 213 | 5.0 | 16.0 | 0.00 | 0.00 | 0.00 | 66 | 1009.7 |
| 20260506000505 | 65 | 193 | 7.0 | 16.0 | 0.00 | 0.00 | 0.00 | 66 | 1009.7 |
| 20260506000003 | 65 | 174 | 3.0 | 13.0 | 0.00 | 0.00 | 0.00 | 66 | 1009.6 |
| 20260505235601 | 65 | 155 | 5.0 | 18.0 | 0.00 | 0.00 | 0.00 | 66 | 1009.5 |
| 20260505235018 | 65 | 213 | 5.0 | 18.0 | 0.00 | 0.00 | 0.00 | 66 | 1009.5 |
| 20260505234516 | 65 | 185 | 3.0 | 10.0 | 0.00 | 0.00 | 0.00 | 66 | 1009.4 |
| 20260505234017 | 65 | 182 | 3.0 | 13.0 | 0.00 | 0.00 | 0.00 | 66 | 1009.3 |
| 20260505233512 | 65 | 205 | 5.0 | 13.0 | 0.00 | 0.00 | 0.00 | 65 | 1009.2 |
| 20260505233017 | 65 | 181 | 3.0 | 14.0 | 0.00 | 0.00 | 0.00 | 65 | 1009.2 |
| 20260505232512 | 65 | 136 | 3.0 | 17.0 | 0.00 | 0.00 | 0.00 | 65 | 1009.2 |
| 20260505232008 | 66 | 215 | 6.0 | 17.0 | 0.00 | 0.00 | 0.00 | 65 | 1009.1 |
| 20260505231507 | 66 | 205 | 7.0 | 16.0 | 0.00 | 0.00 | 0.00 | 64 | 1009.0 |
| 20260505231004 | 66 | 159 | 4.0 | 13.0 | 0.00 | 0.00 | 0.00 | 64 | 1009.1 |
| 20260505230503 | 67 | 216 | 6.0 | 17.0 | 0.00 | 0.00 | 0.00 | 63 | 1009.0 |
| 20260505230004 | 67 | 213 | 7.0 | 17.0 | 0.00 | 0.00 | 0.00 | 62 | 1008.8 |
| 20260505225519 | 67 | 156 | 5.0 | 15.0 | 0.00 | 0.00 | 0.00 | 62 | 1008.9 |
| 20260505225018 | 67 | 202 | 6.0 | 15.0 | 0.00 | 0.00 | 0.00 | 62 | 1008.6 |
| 20260505224514 | 68 | 204 | 7.0 | 21.0 | 0.00 | 0.00 | 0.00 | 61 | 1008.8 |
| 20260505224012 | 68 | 173 | 7.0 | 21.0 | 0.00 | 0.00 | 0.00 | 60 | 1008.9 |
| 20260505223510 | 69 | 136 | 8.0 | 18.0 | 0.00 | 0.00 | 0.00 | 60 | 1008.8 |
| 20260505223015 | 69 | 209 | 6.0 | 18.0 | 0.00 | 0.00 | 0.00 | 60 | 1008.8 |
| 20260505222508 | 69 | 90 | 7.0 | 17.0 | 0.00 | 0.00 | 0.00 | 60 | 1008.7 |
| 20260505222007 | 69 | 183 | 5.0 | 17.0 | 0.00 | 0.00 | 0.00 | 60 | 1008.6 |
| 20260505221503 | 69 | 172 | 5.0 | 17.0 | 0.00 | 0.00 | 0.00 | 60 | 1008.7 |
| 20260505221001 | 69 | 177 | 6.0 | 20.0 | 0.00 | 0.00 | 0.00 | 60 | 1008.6 |
| 20260505220504 | 69 | 173 | 9.0 | 20.0 | 0.00 | 0.00 | 0.00 | 60 | 1008.6 |
| 20260505220108 | 69 | 182 | 5.0 | 19.0 | 0.00 | 0.00 | 0.00 | 60 | 1008.7 |
| 20260505215600 | 69 | 222 | 8.0 | 23.0 | 0.00 | 0.00 | 0.00 | 60 | 1008.6 |
| 20260505215017 | 69 | 186 | 7.0 | 19.0 | 0.00 | 0.00 | 0.00 | 60 | 1008.7 |
| 20260505214525 | 69 | 170 | 8.0 | 19.0 | 0.00 | 0.00 | 0.00 | 60 | 1008.5 |
| 20260505214014 | 69 | 217 | 6.0 | 20.0 | 0.00 | 0.00 | 0.00 | 61 | 1008.6 |
| 20260505213511 | 69 | 225 | 8.0 | 19.0 | 0.00 | 0.00 | 0.00 | 62 | 1008.6 |
| 20260505213018 | 69 | 167 | 5.0 | 20.0 | 0.00 | 0.00 | 0.00 | 62 | 1008.7 |
| 20260505212507 | 69 | 178 | 7.0 | 20.0 | 0.00 | 0.00 | 0.00 | 61 | 1008.6 |
| 20260505212006 | 69 | 221 | 5.0 | 24.0 | 0.00 | 0.00 | 0.00 | 62 | 1008.4 |
| 20260505211503 | 69 | 298 | 7.0 | 24.0 | 0.00 | 0.00 | 0.00 | 62 | 1008.4 |
| 20260505211100 | 69 | 176 | 8.0 | 25.0 | 0.00 | 0.00 | 0.00 | 62 | 1008.4 |
| 20260505210518 | 69 | 205 | 10.0 | 24.0 | 0.00 | 0.00 | 0.00 | 61 | 1008.4 |
| 20260505210056 | 69 | 175 | 8.0 | 22.0 | 0.00 | 0.00 | 0.00 | 62 | 1008.4 |
| 20260505205522 | 69 | 234 | 6.0 | 22.0 | 0.00 | 0.00 | 0.00 | 61 | 1008.5 |
| 20260505205016 | 69 | 236 | 9.0 | 22.0 | 0.00 | 0.00 | 0.00 | 60 | 1008.6 |
| 20260505204516 | 70 | 199 | 9.0 | 18.0 | 0.00 | 0.00 | 0.00 | 60 | 1008.5 |
| 20260505204012 | 70 | 187 | 9.0 | 18.0 | 0.00 | 0.00 | 0.00 | 59 | 1008.5 |
| 20260505203511 | 71 | 180 | 4.0 | 18.0 | 0.00 | 0.00 | 0.00 | 61 | 1008.6 |
| 20260505203011 | 71 | 178 | 5.0 | 14.0 | 0.00 | 0.00 | 0.00 | 61 | 1008.5 |
| 20260505202508 | 71 | 197 | 5.0 | 15.0 | 0.00 | 0.00 | 0.00 | 61 | 1008.6 |
| 20260505202004 | 71 | 136 | 6.0 | 20.0 | 0.00 | 0.00 | 0.00 | 60 | 1008.7 |
| 20260505201502 | 71 | 191 | 9.0 | 20.0 | 0.00 | 0.00 | 0.00 | 60 | 1008.6 |
| 20260505201001 | 71 | 120 | 7.0 | 15.0 | 0.00 | 0.00 | 0.00 | 59 | 1008.7 |
| 20260505200501 | 71 | 240 | 9.0 | 15.0 | 0.00 | 0.00 | 0.00 | 59 | 1008.7 |
| 20260505200018 | 72 | 161 | 7.0 | 13.0 | 0.00 | 0.00 | 0.00 | 59 | 1008.8 |
| 20260505195521 | 72 | 173 | 7.0 | 16.0 | 0.00 | 0.00 | 0.00 | 59 | 1008.9 |
| 20260505195014 | 72 | 202 | 6.0 | 16.0 | 0.00 | 0.00 | 0.00 | 60 | 1008.7 |
| 20260505194519 | 72 | 229 | 7.0 | 15.0 | 0.00 | 0.00 | 0.00 | 58 | 1008.8 |
| 20260505194020 | 72 | 176 | 3.0 | 14.0 | 0.00 | 0.00 | 0.00 | 61 | 1009.0 |
| 20260505193512 | 72 | 192 | 6.0 | 21.0 | 0.00 | 0.00 | 0.00 | 59 | 1009.0 |
| 20260505193010 | 72 | 259 | 8.0 | 21.0 | 0.00 | 0.00 | 0.00 | 59 | 1008.9 |
| 20260505192508 | 72 | 203 | 4.0 | 16.0 | 0.00 | 0.00 | 0.00 | 60 | 1009.0 |
| 20260505192006 | 72 | 119 | 5.0 | 12.0 | 0.00 | 0.00 | 0.00 | 61 | 1009.3 |
| 20260505191600 | 72 | 175 | 4.0 | 13.0 | 0.00 | 0.00 | 0.00 | 61 | 1009.3 |
| 20260505191017 | 72 | 191 | 6.0 | 13.0 | 0.00 | 0.00 | 0.00 | 61 | 1009.4 |
| 20260505190519 | 72 | 211 | 4.0 | 18.0 | 0.00 | 0.00 | 0.00 | 61 | 1009.5 |
| 20260505190015 | 72 | 105 | 6.0 | 18.0 | 0.00 | 0.00 | 0.00 | 60 | 1009.6 |
| 20260505185513 | 72 | 117 | 6.0 | 17.0 | 0.00 | 0.00 | 0.00 | 60 | 1009.8 |
| 20260505185012 | 72 | 175 | 6.0 | 17.0 | 0.00 | 0.00 | 0.00 | 60 | 1009.8 |
| 20260505184508 | 72 | 139 | 5.0 | 17.0 | 0.00 | 0.00 | 0.00 | 61 | 1009.7 |
| 20260505184007 | 71 | 172 | 7.0 | 18.0 | 0.00 | 0.00 | 0.00 | 62 | 1009.7 |
| 20260505183506 | 71 | 187 | 7.0 | 17.0 | 0.00 | 0.00 | 0.00 | 60 | 1009.8 |
| 20260505183007 | 71 | 161 | 7.0 | 16.0 | 0.00 | 0.00 | 0.00 | 61 | 1009.9 |
| 20260505182505 | 71 | 172 | 8.0 | 15.0 | 0.00 | 0.00 | 0.00 | 61 | 1009.9 |
| 20260505182003 | 71 | 188 | 3.0 | 11.0 | 0.00 | 0.00 | 0.00 | 62 | 1009.8 |
| 20260505181502 | 72 | 136 | 3.0 | 11.0 | 0.00 | 0.00 | 0.00 | 61 | 1009.8 |
| 20260505181100 | 72 | 117 | 3.0 | 11.0 | 0.00 | 0.00 | 0.00 | 61 | 1009.8 |
| 20260505180517 | 71 | 109 | 3.0 | 10.0 | 0.00 | 0.00 | 0.00 | 64 | 1009.9 |
| 20260505180016 | 72 | 207 | 6.0 | 10.0 | 0.00 | 0.00 | 0.00 | 62 | 1009.8 |
| 20260505175514 | 71 | 168 | 4.0 | 15.0 | 0.00 | 0.00 | 0.00 | 62 | 1009.9 |
| 20260505175007 | 71 | 171 | 6.0 | 15.0 | 0.00 | 0.00 | 0.00 | 63 | 1010.0 |
| 20260505174506 | 71 | 164 | 3.0 | 11.0 | 0.00 | 0.00 | 0.00 | 62 | 1010.1 |
| 20260505174003 | 72 | 65 | 5.0 | 13.0 | 0.00 | 0.00 | 0.00 | 61 | 1010.1 |
| 20260505173503 | 72 | 123 | 6.0 | 11.0 | 0.00 | 0.00 | 0.00 | 61 | 1010.1 |
| 20260505173059 | 72 | 115 | 4.0 | 16.0 | 0.00 | 0.00 | 0.00 | 61 | 1010.2 |
| 20260505172600 | 72 | 165 | 6.0 | 16.0 | 0.00 | 0.00 | 0.00 | 59 | 1010.1 |
| 20260505172059 | 73 | 191 | 3.0 | 12.0 | 0.00 | 0.00 | 0.00 | 62 | 1010.2 |
| 20260505171517 | 73 | 168 | 4.0 | 15.0 | 0.00 | 0.00 | 0.00 | 60 | 1010.2 |
| 20260505171018 | 73 | 140 | 4.0 | 15.0 | 0.00 | 0.00 | 0.00 | 59 | 1010.1 |
| 20260505170514 | 73 | 194 | 3.0 | 10.0 | 0.00 | 0.00 | 0.00 | 59 | 1010.2 |
| 20260505170015 | 73 | 140 | 2.0 | 12.0 | 0.00 | 0.00 | 0.00 | 59 | 1010.4 |
| 20260505165509 | 73 | 212 | 6.0 | 12.0 | 0.00 | 0.00 | 0.00 | 58 | 1010.3 |
| 20260505165008 | 73 | 192 | 4.0 | 10.0 | 0.00 | 0.00 | 0.00 | 57 | 1010.3 |
| 20260505164507 | 73 | 190 | 3.0 | 10.0 | 0.00 | 0.00 | 0.00 | 57 | 1010.3 |
| 20260505164004 | 73 | 156 | 4.0 | 11.0 | 0.00 | 0.00 | 0.00 | 60 | 1010.5 |
| 20260505163503 | 73 | 194 | 5.0 | 11.0 | 0.00 | 0.00 | 0.00 | 59 | 1010.5 |
| 20260505163100 | 73 | 101 | 6.0 | 11.0 | 0.00 | 0.00 | 0.00 | 58 | 1010.6 |
| 20260505162517 | 73 | 182 | 3.0 | 12.0 | 0.00 | 0.00 | 0.00 | 59 | 1010.6 |
| 20260505162017 | 73 | 211 | 4.0 | 12.0 | 0.00 | 0.00 | 0.00 | 58 | 1010.6 |
| 20260505161515 | 73 | 77 | 3.0 | 11.0 | 0.00 | 0.00 | 0.00 | 58 | 1010.6 |
| 20260505161012 | 73 | 226 | 6.0 | 12.0 | 0.00 | 0.00 | 0.00 | 58 | 1010.6 |
| 20260505160515 | 72 | 197 | 5.0 | 12.0 | 0.00 | 0.00 | 0.00 | 58 | 1010.6 |
| 20260505153117 | 71 | 189 | 2.0 | 12.0 | 0.00 | 0.00 | 0.00 | 61 | 1010.7 |
| 20260505152519 | 71 | 198 | 6.0 | 12.0 | 0.00 | 0.00 | 0.00 | 60 | 1010.9 |
| 20260505152016 | 71 | 205 | 5.0 | 15.0 | 0.00 | 0.00 | 0.00 | 60 | 1011.0 |
| 20260505151514 | 71 | 193 | 5.0 | 14.0 | 0.00 | 0.00 | 0.00 | 60 | 1011.1 |
| 20260505151012 | 70 | 258 | 4.0 | 14.0 | 0.00 | 0.00 | 0.00 | 61 | 1011.2 |
| 20260505150513 | 70 | 209 | 7.0 | 13.0 | 0.00 | 0.00 | 0.00 | 62 | 1011.2 |
| 20260505140511 | 66 | 224 | 6.0 | 12.0 | 0.00 | 0.00 | 0.00 | 65 | 1011.0 |
| 20260505124613 | 59 | 218 | 2.0 | 8.0 | 0.00 | 0.00 | 0.00 | 81 | 1010.9 |
| 20260505124058 | 59 | 195 | 3.0 | 8.0 | 0.00 | 0.00 | 0.00 | 83 | 1010.9 |
| 20260505123513 | 58 | 190 | 2.0 | 6.0 | 0.00 | 0.00 | 0.00 | 85 | 1011.0 |
| 20260505123015 | 58 | 151 | 2.0 | 7.0 | 0.00 | 0.00 | 0.00 | 86 | 1011.0 |
| 20260505122513 | 57 | 209 | 2.0 | 11.0 | 0.00 | 0.00 | 0.00 | 86 | 1010.8 |
| 20260505122018 | 57 | 169 | 5.0 | 11.0 | 0.00 | 0.00 | 0.00 | 87 | 1010.8 |
| 20260505121510 | 56 | 186 | 3.0 | 8.0 | 0.00 | 0.00 | 0.00 | 87 | 1010.9 |
| 20260505121009 | 56 | 203 | 2.0 | 8.0 | 0.00 | 0.00 | 0.00 | 88 | 1011.0 |
| 20260505120506 | 56 | 232 | 2.0 | 7.0 | 0.00 | 0.00 | 0.00 | 88 | 1011.1 |
| 20260505120005 | 56 | 173 | 3.0 | 7.0 | 0.00 | 0.00 | 0.00 | 89 | 1011.2 |
| 20260505115502 | 55 | 213 | 3.0 | 8.0 | 0.00 | 0.00 | 0.00 | 89 | 1011.2 |
| 20260505115002 | 55 | 175 | 4.0 | 9.0 | 0.00 | 0.00 | 0.00 | 89 | 1011.2 |
| 20260505114519 | 55 | 183 | 2.0 | 6.0 | 0.00 | 0.00 | 0.00 | 90 | 1011.1 |
| 20260505114016 | 54 | 165 | 1.0 | 6.0 | 0.00 | 0.00 | 0.00 | 90 | 1011.2 |
| 20260505113514 | 54 | 179 | 2.0 | 6.0 | 0.00 | 0.00 | 0.00 | 90 | 1011.3 |
| 20260505113015 | 54 | 188 | 3.0 | 6.0 | 0.00 | 0.00 | 0.00 | 90 | 1011.3 |
| 20260505112510 | 54 | 228 | 1.0 | 8.0 | 0.00 | 0.00 | 0.00 | 90 | 1011.3 |
| 20260505112013 | 53 | 68 | 2.0 | 8.0 | 0.00 | 0.00 | 0.00 | 90 | 1011.2 |
| 20260505111511 | 53 | 206 | 2.0 | 6.0 | 0.00 | 0.00 | 0.00 | 90 | 1011.3 |
| 20260505111013 | 53 | 215 | 3.0 | 8.0 | 0.00 | 0.00 | 0.00 | 90 | 1011.3 |
| 20260505110509 | 53 | 176 | 2.0 | 5.0 | 0.00 | 0.00 | 0.00 | 89 | 1011.3 |
| 20260505102009 | 52 | 178 | 3.0 | 8.0 | 0.00 | 0.00 | 0.00 | 89 | 1010.3 |
| 20260505101508 | 52 | 181 | 1.0 | 7.0 | 0.00 | 0.00 | 0.00 | 89 | 1010.3 |
| 20260505101011 | 52 | 158 | 3.0 | 7.0 | 0.00 | 0.00 | 0.00 | 89 | 1010.1 |
| 20260505100508 | 52 | 132 | 1.0 | 5.0 | 0.00 | 0.00 | 0.00 | 88 | 1010.0 |
| 20260505100007 | 52 | 177 | 0.0 | 4.0 | 0.00 | 0.00 | 0.00 | 88 | 1009.9 |
| 20260505095505 | 52 | 189 | 0.0 | 3.0 | 0.00 | 0.00 | 0.00 | 88 | 1010.0 |
| 20260505095002 | 52 | 179 | 0.0 | 5.0 | 0.00 | 0.00 | 0.00 | 88 | 1010.0 |
| 20260505094601 | 52 | 179 | 1.0 | 5.0 | 0.00 | 0.00 | 0.00 | 88 | 1010.0 |
| 20260505094018 | 52 | 166 | 0.0 | 5.0 | 0.00 | 0.00 | 0.00 | 88 | 1010.0 |
| 20260505093517 | 52 | 195 | 2.0 | 6.0 | 0.00 | 0.00 | 0.00 | 88 | 1010.0 |
| 20260505093016 | 52 | 133 | 1.0 | 7.0 | 0.00 | 0.00 | 0.00 | 88 | 1010.0 |
| 20260505092517 | 52 | 142 | 2.0 | 7.0 | 0.00 | 0.00 | 0.00 | 88 | 1010.1 |
| 20260505092012 | 52 | 185 | 2.0 | 7.0 | 0.00 | 0.00 | 0.00 | 88 | 1010.1 |
| 20260505091512 | 52 | 184 | 2.0 | 6.0 | 0.00 | 0.00 | 0.00 | 88 | 1010.2 |
| 20260505091008 | 52 | 159 | 1.0 | 5.0 | 0.00 | 0.00 | 0.00 | 88 | 1010.1 |
| 20260505090506 | 52 | 170 | 1.0 | 5.0 | 0.00 | 0.00 | 0.00 | 88 | 1010.1 |
| 20260505090009 | 52 | 188 | 2.0 | 6.0 | 0.00 | 0.00 | 0.00 | 88 | 1010.2 |
| 20260505085509 | 53 | 182 | 1.0 | 6.0 | 0.00 | 0.00 | 0.00 | 88 | 1010.2 |
| 20260505085003 | 53 | 185 | 3.0 | 6.0 | 0.00 | 0.00 | 0.00 | 88 | 1010.2 |
| 20260505084503 | 53 | 188 | 1.0 | 6.0 | 0.00 | 0.00 | 0.00 | 88 | 1010.1 |
| 20260505084018 | 53 | 175 | 1.0 | 6.0 | 0.00 | 0.00 | 0.00 | 87 | 1010.1 |
| 20260505083516 | 53 | 197 | 2.0 | 9.0 | 0.00 | 0.00 | 0.00 | 87 | 1010.2 |
| 20260505083014 | 53 | 123 | 2.0 | 9.0 | 0.00 | 0.00 | 0.00 | 87 | 1010.3 |
| 20260505082513 | 53 | 158 | 3.0 | 9.0 | 0.00 | 0.00 | 0.00 | 87 | 1010.2 |
| 20260505082011 | 53 | 148 | 3.0 | 9.0 | 0.00 | 0.00 | 0.00 | 87 | 1010.2 |
| 20260505081516 | 53 | 180 | 3.0 | 10.0 | 0.00 | 0.00 | 0.00 | 87 | 1010.2 |
| 20260505081006 | 53 | 170 | 3.0 | 11.0 | 0.00 | 0.00 | 0.00 | 87 | 1010.1 |
| 20260505080504 | 53 | 163 | 1.0 | 8.0 | 0.00 | 0.00 | 0.00 | 87 | 1010.2 |